Dewpoint
67 66 69 71 72 72 71 71 71 71 71 71 71 72 72 72 72 71 71 71 70 70 70 70 70 70 70 70 70 70 69 69 70 69 70 70 70 70 70 69 69 69 70 71 71 71 71 72 72 71 71 70 69 68 67 67 67 67 66 66 66 67 67 68 68 69 71 72 70 70 70 70 69 70 71 71 71 71 71 71 71 70 70 70 71
67 66 70 71 72 72 71 71 71 71 71 71 71 71 72 72 72 71 71 71 70 70 70 69 70 69 70 70 70 69 69 69 69 69 69 69 69 69 69 69 69 68 68 70 71 71 71 71 71 71 71 70 69 68 67 67 66 65 65 66 65 66 66 66 67 67 68 70 72 72 71 70 70 69 70 71 71 71 71 71 70 69 69 70 71
67 67 70 71 71 72 72 72 72 71 71 71 71 71 71 71 71 71 71 70 70 70 70 69 70 69 70 70 69 69 69 69 69 69 69 69 69 70 70 69 68 68 69 69 70 71 70 71 71 70 70 69 68 67 67 66 65 65 64 64 64 65 65 66 67 67 67 69 70 71 71 71 70 70 70 70 71 71 71 71 71 70 69 70 70
66 66 70 70 70 71 72 72 72 72 71 71 71 72 71 71 71 71 71 70 70 70 70 69 70 70 70 70 69 69 69 69 69 69 69 69 70 70 71 70 68 69 69 70 70 71 71 71 70 70 69 68 67 66 66 65 65 64 63 62 62 62 63 63 65 66 67 67 66 68 69 68 70 70 70 69 70 71 71 71 70 69 69 69 69
66 67 69 70 71 70 72 72 72 72 71 71 71 71 71 71 70 71 70 70 70 70 69 70 70 70 70 70 70 69 69 69 69 69 69 69 70 70 70 70 70 70 70 70 70 70 70 70 69 69 68 67 66 66 65 64 64 63 62 61 61 60 60 61 63 64 65 66 65 65 65 69 69 71 70 70 69 70 71 71 70 69 69 69 69
66 67 69 70 70 70 71 72 72 72 72 71 71 71 71 71 70 70 70 70 70 69 69 70 70 70 69 70 70 69 69 69 69 69 69 69 69 69 69 69 69 69 70 70 70 69 69 69 68 68 67 66 65 65 64 64 63 62 61 59 58 58 58 59 61 62 64 63 63 64 67 68 69 69 70 70 69 69 70 69 69 69 69 69 69
66 68 69 70 70 70 70 72 72 72 71 71 71 70 71 70 70 70 70 70 70 69 69 70 70 69 69 70 70 70 69 69 69 69 68 68 68 68 68 69 69 70 70 69 69 68 68 68 67 67 66 65 64 63 63 62 61 60 59 57 56 56 56 58 60 61 64 59 62 63 67 69 69 69 70 70 69 69 68 68 69 69 69 69 68
67 68 69 70 70 70 70 72 72 72 71 72 71 71 70 70 70 70 70 70 69 69 69 69 70 69 69 70 70 70 69 69 69 68 68 68 68 68 68 69 69 70 69 69 68 68 67 66 67 66 65 64 63 62 62 61 60 59 57 55 54 53 56 58 60 62 63 57 61 62 64 67 68 68 70 70 70 69 69 68 69 69 69 68 69
67 67 68 69 70 69 70 71 72 72 71 71 71 71 71 70 70 70 70 70 70 70 69 69 69 69 69 70 69 69 69 69 69 68 68 68 68 68 69 69 69 69 68 67 67 67 66 66 65 65 64 63 62 61 60 60 58 56 55 53 52 54 57 58 61 62 57 59 60 60 62 64 68 67 68 69 69 69 70 70 70 69 69 70 69
66 67 68 69 69 69 70 71 72 72 71 72 72 71 71 70 71 70 70 70 70 70 69 69 69 69 69 70 70 70 70 70 69 68 68 68 68 69 68 69 69 68 67 66 65 65 65 65 64 63 64 62 60 60 59 58 56 54 54 53 52 55 58 60 60 59 57 58 59 62 66 68 67 67 68 69 69 70 70 69 69 68 70 70 69
66 66 67 68 69 68 70 72 72 71 71 72 72 71 71 71 71 70 70 70 69 69 70 69 69 69 69 70 69 70 70 69 69 68 68 68 68 68 67 67 67 67 66 65 64 63 63 64 63 62 62 61 59 58 57 56 56 55 53 52 54 57 58 60 58 56 57 58 60 62 64 66 63 65 68 69 69 70 70 69 70 70 69 69 69
65 65 67 68 68 68 70 71 71 72 71 72 72 71 71 71 71 70 70 70 70 70 70 70 69 69 70 70 70 70 70 70 69 68 68 68 67 67 67 67 66 66 65 64 63 62 61 61 61 62 61 60 58 57 56 56 55 54 53 52 55 57 57 60 56 56 56 58 61 61 61 62 62 66 67 67 68 69 69 70 69 69 69 68 68
63 65 66 67 68 68 69 71 71 71 72 72 71 71 71 71 71 70 70 70 70 70 70 70 70 70 70 70 70 70 70 69 68 68 68 68 67 67 67 66 66 65 64 63 62 61 60 60 60 60 60 58 57 56 56 56 55 54 53 53 55 57 59 58 54 55 56 57 59 60 60 61 63 67 66 66 66 67 68 68 68 68 68 68 67
63 65 67 68 68 67 68 69 70 71 71 71 72 71 71 71 71 70 70 70 70 70 70 70 70 70 70 70 70 70 70 69 68 68 68 67 67 66 66 66 66 65 64 63 62 60 60 60 60 61 60 58 56 56 55 54 54 53 53 54 56 57 59 53 57 54 56 57 59 59 59 61 63 67 63 64 65 65 66 67 67 67 67 67 66
62 66 67 67 67 68 66 68 69 70 70 71 71 71 71 71 71 71 70 70 70 70 70 70 71 70 71 71 70 70 70 69 68 68 67 66 66 66 66 65 65 65 65 63 60 59 59 59 60 60 59 58 56 55 54 54 53 52 52 53 55 56 57 52 53 54 55 58 58 58 58 59 65 62 62 61 63 64 64 65 65 65 65 65 65
62 66 67 67 67 68 68 67 68 68 69 70 70 71 71 71 71 71 71 71 70 70 71 71 71 71 71 71 70 70 70 69 68 67 67 66 66 65 65 64 64 63 64 63 61 59 59 59 59 60 58 57 56 55 53 53 52 51 52 53 54 56 55 53 51 52 54 57 57 58 57 59 65 62 61 60 61 61 62 63 63 63 64 64 64
63 66 67 66 67 68 68 68 68 66 67 67 68 69 70 70 71 71 70 70 70 71 71 71 71 71 71 71 70 70 69 69 68 67 67 66 66 65 64 63 63 63 63 62 59 59 59 59 61 60 58 57 56 55 53 52 51 50 50 51 52 54 54 53 50 50 53 56 56 56 57 59 63 62 61 60 60 60 60 62 62 62 62 63 63
63 66 66 67 67 67 68 68 68 68 69 67 66 68 69 70 70 70 70 70 70 70 70 70 70 70 70 70 69 69 69 69 68 68 67 66 66 65 64 62 62 62 61 60 59 59 59 60 61 59 58 57 56 54 52 50 49 47 48 49 51 53 52 51 46 51 54 56 55 56 57 62 61 60 61 60 60 60 60 60 61 61 61 61 62
61 63 65 66 67 67 67 67 67 68 68 69 69 68 66 68 69 69 69 69 69 69 70 69 69 69 69 68 67 67 66 66 67 67 67 66 65 64 65 63 62 61 60 60 59 59 59 61 60 59 58 57 55 53 51 49 47 45 48 51 49 50 50 45 44 50 53 53 54 55 57 61 59 59 60 60 60 59 59 59 60 60 60 60 60
60 62 63 65 67 67 67 67 67 68 68 68 69 69 66 65 67 67 68 68 68 69 68 68 67 66 66 66 65 65 63 65 63 64 63 64 63 62 63 64 61 61 60 59 59 59 59 61 60 59 58 56 54 51 48 47 46 45 48 50 50 49 39 41 44 50 52 52 53 54 60 60 59 59 59 59 58 57 58 58 58 57 58 59 59
60 60 62 63 65 66 66 67 67 67 68 68 68 69 68 64 65 65 65 66 67 67 67 65 63 63 63 63 62 65 65 64 63 62 60 61 59 59 62 63 62 62 63 62 59 59 59 60 59 59 57 56 53 49 48 46 45 46 48 52 49 40 39 40 45 50 50 50 52 54 59 59 58 58 57 56 55 56 56 57 57 58 58 58 58
59 60 61 63 63 65 66 66 67 67 67 67 68 69 68 65 68 67 66 66 64 64 65 67 64 66 62 64 65 63 63 62 62 60 60 59 58 58 60 62 63 63 63 61 60 59 59 59 59 58 57 55 52 45 47 50 47 48 50 49 43 41 39 40 44 48 48 48 51 56 59 58 58 57 56 54 54 54 54 56 57 58 57 57 57
56 59 60 62 63 63 64 65 66 66 67 67 67 68 68 67 67 67 66 64 65 65 66 66 66 66 64 64 63 62 61 61 60 59 59 57 57 57 59 61 62 62 62 63 62 60 59 59 59 58 57 53 45 42 41 40 38 47 46 43 41 38 39 41 43 47 48 48 48 57 58 58 57 57 56 55 54 55 56 56 55 56 56 57 57
55 58 60 61 62 62 63 64 65 66 66 66 67 67 67 67 67 67 67 66 66 66 66 66 66 65 64 62 61 61 60 60 59 57 58 57 57 57 59 60 60 60 60 60 61 61 60 59 58 58 56 47 42 39 38 36 34 34 37 41 39 38 38 39 42 45 46 49 49 55 57 58 58 57 56 55 55 55 56 56 56 56 56 56 56
54 56 58 60 61 62 62 63 63 65 65 66 65 65 66 66 67 67 67 67 67 67 67 67 65 64 63 62 60 60 59 59 58 58 58 57 56 57 58 58 58 56 57 55 55 56 57 55 55 53 47 45 43 40 37 33 36 33 37 39 37 36 38 39 42 44 44 45 49 54 56 58 58 58 56 56 54 55 55 56 56 55 55 56 55
53 55 57 59 60 61 62 62 62 63 64 65 65 64 64 66 66 66 66 67 67 67 67 66 65 64 62 61 60 59 59 59 58 58 57 57 56 56 56 56 55 56 55 55 53 54 53 52 51 49 45 44 43 43 40 36 36 37 36 36 37 37 36 37 41 44 44 44 48 54 55 57 58 58 56 56 55 55 55 55 56 55 55 55 54
51 53 56 58 59 61 61 62 62 63 63 63 64 63 63 65 66 66 66 66 67 66 66 66 65 63 62 61 60 59 59 58 58 57 57 56 56 56 56 56 56 55 55 55 54 53 52 51 50 48 44 41 39 40 40 39 37 36 36 37 37 36 37 37 40 42 42 45 49 54 55 56 58 58 55 56 54 55 55 54 54 54 53 53 53
47 51 55 58 58 60 61 62 62 62 63 63 63 63 62 64 65 64 65 65 65 66 66 65 64 63 61 60 59 59 59 58 57 57 57 56 56 56 55 56 56 55 54 55 54 53 52 51 49 46 44 40 38 39 38 38 37 37 36 36 36 35 35 35 38 42 43 43 45 52 54 56 57 58 57 56 55 55 54 54 53 54 53 53 52
38 48 53 57 58 59 60 61 62 62 62 63 62 62 62 62 63 64 65 62 65 65 65 64 64 63 62 60 59 59 59 58 57 57 57 56 56 55 55 56 55 55 54 54 54 53 51 50 48 47 44 39 38 37 37 37 36 36 36 36 35 35 35 36 36 40 42 43 44 49 54 55 57 58 57 55 55 55 54 53 53 52 53 53 52
35 41 52 55 57 58 59 60 61 61 62 62 62 62 62 61 61 63 64 62 63 63 63 64 64 63 62 61 59 59 59 58 57 57 56 56 55 55 55 55 55 55 54 54 53 54 51 48 45 45 41 38 36 35 35 34 36 37 36 35 34 34 35 34 34 38 41 42 44 45 52 55 56 59 58 55 54 54 53 52 52 51 52 53 52
37 37 47 53 54 57 58 59 60 60 60 61 62 62 61 61 61 60 61 62 62 61 62 63 62 63 62 60 60 59 59 58 57 57 56 55 55 54 54 54 55 55 55 54 51 53 51 46 43 40 37 36 34 35 33 33 35 35 37 35 33 34 34 35 35 36 41 42 43 44 46 52 55 56 59 59 58 58 56 53 52 52 51 55 52
34 34 39 44 52 56 57 58 59 60 60 60 60 61 60 60 60 60 59 60 60 60 60 61 60 61 61 60 60 59 58 58 57 56 56 54 54 54 54 54 54 54 54 54 51 50 48 42 39 37 36 35 33 34 33 32 33 34 35 33 33 32 33 33 34 37 40 42 43 44 43 46 52 53 55 58 58 58 57 56 54 52 52 51 51
33 34 36 42 50 52 56 57 58 58 59 60 60 61 60 59 59 60 60 59 59 59 60 59 60 60 60 60 59 59 58 57 57 56 55 54 54 53 53 53 54 53 53 52 49 45 41 38 36 36 35 33 32 32 35 32 32 33 34 32 32 32 33 33 34 35 36 40 43 43 43 43 44 48 51 54 56 57 58 58 57 54 51 52 51
35 36 36 37 43 50 53 55 56 58 58 59 59 59 59 58 58 59 59 59 59 58 59 59 58 58 59 59 59 58 58 57 57 56 55 54 53 53 53 52 53 52 52 50 47 41 38 36 35 34 34 32 30 31 31 30 31 34 32 32 31 31 32 33 34 34 35 34 39 44 44 43 42 43 43 48 52 55 57 58 57 56 53 52 50
36 36 37 37 38 44 51 53 53 55 56 56 57 58 57 57 57 57 58 58 58 58 57 58 57 57 57 58 58 58 57 57 56 56 55 54 53 52 52 52 52 51 50 46 45 39 36 34 35 32 32 30 29 31 29 29 31 31 30 32 30 32 32 32 35 34 33 34 37 40 43 42 42 42 42 40 45 49 54 56 57 57 55 52 50
36 36 37 38 38 43 50 53 53 53 54 54 54 56 56 55 56 55 57 56 57 58 57 57 57 56 56 57 57 57 56 56 55 55 54 53 53 52 52 50 50 48 47 43 41 37 35 35 34 31 31 29 29 30 29 29 29 29 31 31 31 33 32 33 33 32 34 34 34 34 34 34 36 40 41 40 41 45 51 53 54 55 56 55 53
36 36 37 37 38 40 47 47 48 52 53 54 54 54 55 55 55 56 56 55 56 56 56 56 56 56 55 56 56 56 56 55 54 54 53 52 51 51 50 49 48 47 45 41 39 37 36 36 33 32 29 29 29 28 29 28 29 30 30 30 30 32 32 32 32 32 35 33 33 32 30 29 36 41 38 38 39 40 47 51 52 52 54 55 55
35 36 37 38 38 39 41 44 44 49 53 53 54 55 55 55 55 55 55 56 55 55 55 56 55 55 55 55 55 55 55 54 53 53 52 52 51 50 49 48 47 45 44 40 38 35 35 34 32 31 29 29 27 26 27 28 31 31 30 30 29 30 31 32 33 36 32 33 32 31 29 31 33 33 35 36 37 38 41 45 48 49 49 54 55
34 35 36 37 38 39 40 40 41 45 52 53 53 54 54 54 54 54 54 54 54 54 54 55 54 55 54 53 54 55 55 55 53 52 52 50 49 49 48 47 45 44 42 40 37 34 34 34 31 30 30 28 26 25 27 30 32 33 31 28 31 30 31 31 34 31 32 32 32 33 33 32 33 32 32 34 35 35 37 37 38 40 43 50 52
32 34 36 36 37 38 38 39 40 40 45 51 53 53 53 52 52 52 53 52 52 52 53 53 53 53 53 52 53 54 54 55 53 52 52 50 48 47 47 46 44 43 41 40 37 33 33 32 31 29 28 29 28 26 30 31 32 31 32 30 31 30 28 31 30 30 33 33 33 32 30 31 31 32 32 32 33 33 34 35 39 40 41 45 47
31 32 34 35 36 37 38 38 39 39 41 46 48 49 50 49 49 50 50 50 50 50 51 52 52 52 52 52 52 52 53 53 53 52 51 49 48 46 46 45 43 42 41 40 38 34 32 31 30 30 27 27 27 29 31 29 28 26 28 28 27 29 29 28 27 31 32 31 30 29 31 31 30 29 30 31 31 31 31 34 36 38 39 37 38
31 31 32 34 35 36 37 37 38 38 39 41 47 47 47 47 46 46 48 48 50 49 49 49 50 50 50 50 50 50 50 50 49 49 49 49 48 45 44 44 42 41 41 40 38 36 33 32 29 27 28 26 25 29 31 27 26 23 24 24 25 26 30 29 26 28 30 29 29 28 29 29 29 29 30 30 30 31 31 31 34 36 38 37 33
31 31 32 33 34 35 36 37 38 38 38 39 42 46 46 45 45 44 46 45 46 47 46 46 47 47 47 47 48 47 47 47 47 47 48 48 47 45 43 42 41 41 40 38 37 35 32 31 29 27 26 27 25 31 29 23 22 25 26 22 19 20 23 23 23 27 30 28 28 27 28 28 29 28 29 29 29 29 30 30 32 35 37 35 31
32 31 31 32 32 34 34 35 37 37 38 38 40 40 43 44 45 45 44 45 45 45 45 45 46 46 45 46 46 45 45 45 45 45 46 47 47 46 44 41 40 40 40 38 36 34 32 32 30 27 26 24 25 27 30 25 24 20 17 16 19 18 16 17 17 23 28 27 27 26 28 28 28 28 29 28 28 29 29 30 30 33 36 34 31
30 31 31 31 31 32 33 34 35 36 37 38 38 39 40 40 40 39 40 41 41 42 42 43 43 43 43 44 44 44 45 44 44 43 44 44 45 45 44 41 40 38 38 38 36 34 32 32 31 28 26 23 24 26 29 27 23 18 19 18 17 18 13 18 19 19 25 26 26 25 28 27 27 26 27 27 28 28 28 30 30 31 34 34 31
29 30 31 31 31 32 32 33 33 34 35 36 37 38 38 39 38 38 37 38 37 38 38 40 41 41 41 42 43 43 43 43 43 43 43 42 43 43 44 41 40 40 38 37 36 35 33 32 31 29 27 25 22 26 27 29 26 24 21 15 17 12 17 23 16 13 22 25 25 26 27 27 27 26 26 26 26 27 29 29 30 30 33 33 32
29 30 30 30 30 31 31 32 32 33 35 34 35 36 36 37 38 38 37 37 37 37 38 38 38 38 40 41 41 41 42 42 42 41 42 41 41 41 41 41 40 39 37 36 35 34 34 32 32 31 28 29 25 25 26 27 27 26 26 24 30 29 24 19 15 19 17 20 23 25 25 27 27 26 26 25 26 26 28 29 30 30 32 34 32
29 29 29 29 29 30 30 31 31 32 32 33 33 35 34 35 35 36 36 36 36 36 37 37 37 37 37 38 39 39 40 41 40 40 40 40 40 40 40 39 40 39 37 36 35 35 35 36 33 31 30 28 26 23 25 27 25 25 24 22 24 31 27 28 22 15 18 16 17 22 24 25 26 26 25 25 26 26 27 29 29 30 31 34 32
29 29 28 29 29 29 29 29 30 30 31 31 32 32 34 33 34 34 33 34 35 35 35 35 35 36 35 36 37 37 38 39 39 39 38 39 39 39 38 38 39 39 37 37 35 35 33 32 33 32 30 30 27 25 24 25 26 25 22 22 23 27 30 28 28 23 18 14 17 18 20 23 25 26 25 25 25 26 27 28 29 30 31 33 32
28 29 28 28 28 28 28 28 28 29 29 29 30 31 31 32 31 32 32 32 33 33 33 33 33 34 33 34 35 35 35 36 38 37 37 38 38 37 38 37 37 38 37 37 35 35 34 33 33 32 31 30 29 26 23 23 27 26 23 24 21 23 28 29 27 25 25 19 14 18 19 20 20 22 25 25 24 26 27 28 29 29 30 32 31
27 27 27 27 27 27 26 27 27 28 28 27 28 28 30 30 30 31 31 31 31 32 31 31 32 32 32 33 33 34 34 34 35 36 37 38 38 36 37 37 37 36 37 37 36 36 34 33 32 32 32 30 29 28 26 24 24 25 25 22 21 22 23 25 26 28 21 21 19 19 19 20 20 19 23 24 25 25 26 28 28 29 30 31 31